User: anonymous   Login
Location: Unspecified
(0.0000°N, 0.0000°E)
Time: 12:21:43
(UTC+00:00)
Language:

RESURS DK-1 - Orbit

View from above orbital plane
View from above orbital plane
View from above satellite
View from above satellite

Ground track
Ground track

The orbit data is extracted from the following two-line orbital elements,

1 29228U 06021A   15027.17237400  .00001150  00000-0  96887-4 0  6470
2 29228 069.9384 155.4084 0007873 250.4792 109.5488 15.01197984477182
Epoch (UTC): 27 January 2015 04:08:13
Eccentricity: 0.0007873
inclination: 69.9384°
perigee height: 558 km
apogee height: 568 km
right ascension of ascending node: 155.4084°
argument of perigee: 250.4792°
revolutions per day: 15.01197984
mean anomaly at epoch: 109.5488°
orbit number at epoch: 47718

The dashed part of the orbit path shows where the satellite is in the earth's shadow,  

DLR